AA9VI-10 Weather Reports


Display with metric or nautical units.
time (UTC)temp
F
wind
direction
speed
MPH
gust
MPH
rain 1hr
in
rain 24hr
in
rain mn
in
humidity
%
barometer
mb
20260507221017 57 180 2.0 8.0 0.00 0.00 0.00 53 1009.6
20260507220017 55 0 2.0 8.0 0.00 0.00 0.00 56 1009.6
20260507215017 52 225 2.0 5.0 0.00 0.00 0.00 60 1009.6
20260507214017 51 270 1.0 3.0 0.00 0.00 0.00 62 1010.1
20260507213017 51 68 1.0 7.0 0.00 0.00 0.00 62 1010.1
20260507212017 52 113 2.0 5.0 0.00 0.00 0.00 59 1010.3
20260507211017 53 0 1.0 3.0 0.00 0.00 0.00 57 1010.4
20260507210017 55 0 1.0 3.0 0.00 0.00 0.00 60 1010.3
20260507205017 58 0 4.0 14.0 0.00 0.00 0.00 47 1010.1
20260507204017 59 0 4.0 10.0 0.00 0.00 0.00 44 1009.7
20260507203017 61 248 4.0 9.0 0.00 0.00 0.00 38 1009.6
20260507202017 60 180 4.0 14.0 0.00 0.00 0.00 43 1009.7
20260507201017 60 180 5.0 13.0 0.00 0.00 0.00 42 1009.7
20260507200017 60 0 3.0 15.0 0.00 0.00 0.00 47 1009.8
20260507195017 59 0 5.0 14.0 0.00 0.00 0.00 45 1010.1
20260507194017 59 0 5.0 10.0 0.00 0.00 0.00 44 1010.3
20260507193018 59 0 5.0 10.0 0.00 0.00 0.00 45 1010.5
20260507192017 58 0 6.0 16.0 0.00 0.00 0.00 44 1010.6
20260507191018 59 0 5.0 16.0 0.00 0.00 0.00 43 1010.7
20260507190017 58 0 5.0 12.0 0.00 0.00 0.00 43 1010.7
20260507185017 56 225 3.0 10.0 0.00 0.00 0.00 43 1010.8
20260507184017 56 0.0 1.0 0.00 0.00 0.00 43 1011.1
20260507183017 56 0 4.0 11.0 0.00 0.00 0.00 39 1011.2
20260507182017 57 0 3.0 9.0 0.00 0.00 0.00 38 1011.2
20260507181017 57 0 3.0 11.0 0.00 0.00 0.00 39 1011.4
20260507180017 57 0 3.0 9.0 0.00 0.00 0.00 38 1011.6
20260507175017 58 0 4.0 9.0 0.00 0.00 0.00 37 1011.8
20260507174017 57 0 5.0 11.0 0.00 0.00 0.00 40 1012.1
20260507173017 58 0 5.0 11.0 0.00 0.00 0.00 37 1012.3
20260507172017 58 0 4.0 10.0 0.00 0.00 0.00 37 1012.5
20260507171018 58 0 4.0 11.0 0.00 0.00 0.00 38 1012.7
20260507170018 57 0 3.0 10.0 0.00 0.00 0.00 36 1012.9
20260507165017 56 0 3.0 15.0 0.00 0.00 0.00 41 1012.9
20260507164017 55 0 3.0 10.0 0.00 0.00 0.00 38 1013.2
20260507163017 55 0 2.0 9.0 0.00 0.00 0.00 39 1013.4
20260507162017 55 225 4.0 12.0 0.00 0.00 0.00 37 1013.5
20260507161017 54 180 1.0 5.0 0.00 0.00 0.00 41 1013.5
20260507160017 53 225 4.0 7.0 0.00 0.00 0.00 41 1013.8
20260507155017 53 180 2.0 7.0 0.00 0.00 0.00 41 1013.9
20260507154017 52 180 1.0 4.0 0.00 0.00 0.00 43 1013.9
20260507153017 52 203 2.0 6.0 0.00 0.00 0.00 44 1014.1
20260507152017 51 180 3.0 10.0 0.00 0.00 0.00 44 1014.4
20260507151017 51 270 1.0 4.0 0.00 0.00 0.00 45 1014.5
20260507150017 50 270 1.0 4.0 0.00 0.00 0.00 49 1014.7
20260507145017 49 293 2.0 7.0 0.00 0.00 0.00 45 1014.9
20260507144017 48 293 1.0 3.0 0.00 0.00 0.00 49 1015.0
20260507143017 48 248 1.0 8.0 0.00 0.00 0.00 49 1015.0
20260507142018 47 203 1.0 4.0 0.00 0.00 0.00 50 1015.0
20260507141017 46 225 1.0 3.0 0.00 0.00 0.00 52 1015.1
20260507140017 45 225 1.0 3.0 0.00 0.00 0.00 55 1015.1
20260507135017 44 225 2.0 4.0 0.00 0.00 0.00 54 1015.1
20260507134017 44 203 1.0 5.0 0.00 0.00 0.00 56 1015.2
20260507133017 43 248 1.0 3.0 0.00 0.00 0.00 56 1015.3
20260507132017 43 0.0 0.0 0.00 0.00 0.00 62 1015.5
20260507131017 42 203 1.0 4.0 0.00 0.00 0.00 63 1015.4
20260507130017 41 0.0 2.0 0.00 0.00 0.00 67 1015.4
20260507125017 40 203 1.0 4.0 0.00 0.00 0.00 67 1015.2
20260507124017 39 0.0 1.0 0.00 0.00 0.00 69 1015.2
20260507123017 39 0.0 1.0 0.00 0.00 0.00 70 1015.1
20260507122018 38 180 1.0 2.0 0.00 0.00 0.00 71 1015.1
20260507121017 37 0.0 2.0 0.00 0.00 0.00 74 1014.9
20260507120017 36 0.0 1.0 0.00 0.00 0.00 75 1015.0
20260507115017 35 0.0 0.0 0.00 0.00 0.00 77 1014.8
20260507114017 34 0.0 0.0 0.00 0.00 0.00 78 1015.0
20260507113017 34 0.0 0.0 0.00 0.00 0.00 78 1014.7
20260507112017 33 0.0 0.0 0.00 0.00 0.00 79 1014.6
20260507111017 33 0.0 0.0 0.00 0.00 0.00 80 1014.6
20260507110017 33 0.0 0.0 0.00 0.00 0.00 79 1014.7
20260507105017 32 0.0 0.0 0.00 0.00 0.00 79 1014.7
20260507104017 32 0.0 0.0 0.00 0.00 0.00 79 1014.6
20260507103017 32 0.0 0.0 0.00 0.00 0.00 78 1014.6
20260507102017 33 0.0 0.0 0.00 0.00 0.00 78 1014.8
20260507101017 33 0.0 0.0 0.00 0.00 0.00 77 1014.7
20260507100017 33 0.0 2.0 0.00 0.00 0.00 78 1014.8
20260507095017 33 0.0 0.0 0.00 0.00 0.00 77 1014.8
20260507094017 33 0.0 0.0 0.00 0.00 0.00 77 1014.8
20260507093017 33 0.0 0.0 0.00 0.00 0.00 76 1014.9
20260507092017 33 0.0 0.0 0.00 0.00 0.00 76 1014.8
20260507091017 33 0.0 0.0 0.00 0.00 0.00 76 1014.7
20260507090017 34 0.0 0.0 0.00 0.00 0.00 75 1014.8
20260507085017 34 0.0 0.0 0.00 0.00 0.00 74 1014.8
20260507084017 33 0.0 0.0 0.00 0.00 0.00 75 1014.8
20260507083017 34 0.0 0.0 0.00 0.00 0.00 75 1014.8
20260507082017 34 0.0 0.0 0.00 0.00 0.00 74 1014.8
20260507081017 34 0.0 0.0 0.00 0.00 0.00 74 1014.8
20260507080017 34 0.0 0.0 0.00 0.00 0.00 73 1014.8
20260507075017 35 0.0 0.0 0.00 0.00 0.00 73 1014.9
20260507074017 35 0.0 0.0 0.00 0.00 0.00 72 1014.9
20260507073017 35 0.0 0.0 0.00 0.00 0.00 72 1015.0
20260507072017 35 0.0 0.0 0.00 0.00 0.00 72 1015.1
20260507071017 35 0.0 0.0 0.00 0.00 0.00 73 1015.2
20260507070017 36 0.0 0.0 0.00 0.00 0.00 72 1015.1
20260507065017 36 0.0 0.0 0.00 0.00 0.00 73 1015.1
20260507064017 36 0.0 0.0 0.00 0.00 0.00 72 1015.2
20260507063017 36 0.0 0.0 0.00 0.00 0.00 71 1015.2
20260507062017 36 0.0 0.0 0.00 0.00 0.00 70 1015.3
20260507061017 36 0.0 0.0 0.00 0.00 0.00 70 1015.4
20260507060017 37 0.0 0.0 0.00 0.00 0.00 70 1015.3
20260507055017 37 0.0 0.0 0.00 0.00 0.00 68 1015.2
20260507054017 37 0.0 0.0 0.00 0.00 0.00 67 1015.2
20260507053017 38 0.0 0.0 0.00 0.00 0.00 66 1015.3
20260507052017 38 0.0 0.0 0.00 0.00 0.00 64 1015.4
20260507051017 39 0.0 0.0 0.00 0.00 0.00 64 1015.3
20260507050017 39 0.0 0.0 0.00 0.00 0.00 61 1015.3
20260507045016 40 0.0 0.0 0.00 0.00 0.00 61 1015.4
20260507044016 40 0.0 0.0 0.00 0.00 0.00 61 1015.3
20260507043016 40 0.0 0.0 0.00 0.00 0.00 61 1015.3
20260507042016 41 0.0 0.0 0.00 0.00 0.00 60 1015.3
20260507041016 41 0.0 0.0 0.00 0.00 0.00 59 1015.3
20260507040016 42 0.0 0.0 0.00 0.00 0.00 57 1015.2
20260507035016 42 0.0 0.0 0.00 0.00 0.00 56 1015.4
20260507034016 42 0.0 0.0 0.00 0.00 0.00 55 1015.4
20260507033016 43 0.0 0.0 0.00 0.00 0.00 54 1015.5
20260507032016 43 0.0 1.0 0.00 0.00 0.00 52 1015.5
20260507031016 43 0.0 1.0 0.00 0.00 0.00 51 1015.4
20260507030016 44 0.0 0.0 0.00 0.00 0.00 50 1015.3
20260507025016 44 0.0 1.0 0.00 0.00 0.00 51 1015.3
20260507024016 44 0.0 1.0 0.00 0.00 0.00 50 1015.2
20260507023016 44 0.0 2.0 0.00 0.00 0.00 49 1015.1
20260507022016 45 0.0 1.0 0.00 0.00 0.00 49 1015.0
20260507021016 45 0.0 1.0 0.00 0.00 0.00 48 1014.9
20260507020516 45 0.0 0.0 0.00 0.00 0.00 48 1014.7
20260507015659 46 0.0 2.0 0.00 0.00 0.00 46 1014.7
20260507015016 46 0.0 3.0 0.00 0.00 0.00 45 1014.7
20260507014016 46 0 1.0 3.0 0.00 0.00 0.00 45 1014.6
20260507013016 47 0.0 2.0 0.00 0.00 0.00 44 1014.6
20260507012016 47 293 1.0 4.0 0.00 0.00 0.00 44 1014.5
20260507011016 47 293 1.0 4.0 0.00 0.00 0.00 43 1014.4
20260507010016 48 293 1.0 3.0 0.00 0.00 0.00 42 1014.3
20260507005016 48 293 2.0 3.0 0.00 0.00 0.00 41 1014.2
20260507004016 49 315 1.0 4.0 0.00 0.00 0.00 41 1014.0
20260507003016 49 315 2.0 8.0 0.00 0.00 0.00 41 1014.0
20260507002016 50 293 2.0 4.0 0.00 0.00 0.00 41 1013.9
20260507001016 50 315 3.0 5.0 0.00 0.00 0.00 40 1013.7
20260507000016 51 293 2.0 7.0 0.00 0.00 0.00 41 1013.6
20260506235016 51 315 2.0 6.0 0.00 0.00 0.00 40 1013.5
20260506234016 52 0 2.0 6.0 0.00 0.00 0.00 40 1013.4
20260506233016 52 0 2.0 8.0 0.00 0.00 0.00 40 1013.4
20260506232016 52 0 2.0 8.0 0.00 0.00 0.00 39 1013.2
20260506231016 53 0 2.0 6.0 0.00 0.00 0.00 39 1013.2
20260506230016 53 0 3.0 10.0 0.00 0.00 0.00 39 1013.1
20260506225016 53 293 2.0 8.0 0.00 0.00 0.00 40 1012.9
20260506224016 54 315 1.0 9.0 0.00 0.00 0.00 39 1013.1
20260506223016 53 0 2.0 8.0 0.00 0.00 0.00 39 1013.0
20260506222015 53 270 3.0 9.0 0.00 0.00 0.00 40 1012.8